Theta_e
347 353 357 358 362 361 364 360 351 350 347 342 343 350 348 349 350 350 344 346 348 346 328 332 336 338 336 330 331 339 336 336 341 339 339 340 341 341 342 341 339 337 340 340 340 340 339 339 338
353 355 357 357 362 365 361 352 352 348 343 344 349 355 350 344 340 341 343 345 345 342 341 328 331 332 333 336 340 341 343 341 340 340 340 340 342 342 342 342 340 339 335 339 339 339 339 333 337
357 356 357 358 353 365 364 354 348 344 344 352 354 355 350 339 338 339 342 343 342 342 343 329 329 332 336 337 339 337 341 342 339 340 339 340 342 342 341 342 339 338 339 332 328 338 335 329 339
358 357 359 363 352 356 355 352 346 349 349 352 354 353 342 339 338 340 342 344 345 348 342 336 335 339 337 336 338 338 334 341 341 338 340 340 341 338 340 342 338 329 328 329 336 337 337 325 328
357 359 361 359 360 356 354 348 348 351 352 352 353 351 339 339 338 343 345 347 348 350 338 334 334 338 340 341 340 338 334 338 340 339 339 337 338 339 340 337 336 336 326 337 338 336 333 329 325
359 359 363 364 362 357 354 353 351 350 351 351 345 342 341 339 341 344 344 347 349 348 347 332 337 336 339 341 340 340 334 337 340 339 337 337 338 339 341 339 337 340 334 339 338 338 337 334 328
359 360 360 361 361 360 356 353 353 352 352 352 351 348 342 339 343 344 344 346 348 351 348 345 342 340 339 341 340 341 335 341 339 337 337 336 338 338 336 337 339 337 332 332 339 338 338 337 333
356 355 358 358 360 361 353 352 353 351 352 352 351 349 342 339 342 345 344 348 348 347 348 349 351 351 346 342 341 341 339 342 338 336 337 336 338 338 339 338 337 337 339 340 341 341 340 339 335
353 359 359 357 357 357 353 353 353 352 351 351 351 345 341 341 343 346 347 347 347 348 348 351 352 349 348 345 342 341 341 343 339 336 336 336 337 338 338 338 339 335 336 339 342 339 342 339 337
349 356 354 351 352 354 353 351 351 352 351 349 343 342 341 341 345 348 345 347 345 346 350 350 352 350 349 347 342 342 343 343 338 336 337 337 336 336 337 338 338 339 332 337 340 344 346 344 341
347 355 353 351 350 352 350 351 352 351 353 343 342 342 342 343 345 347 345 346 345 347 348 348 351 351 347 344 343 348 345 343 341 336 338 337 338 336 339 341 340 340 337 333 337 340 347 348 345
354 350 346 346 350 350 351 352 351 346 351 351 343 343 343 344 345 346 345 346 344 347 349 351 350 349 352 347 349 350 349 349 344 339 341 340 340 339 339 340 340 339 342 346 342 334 344 346 347
348 346 346 347 350 349 351 353 353 346 344 352 345 345 343 344 346 346 347 345 345 346 346 349 348 350 348 349 348 350 349 348 348 348 349 344 340 337 340 340 341 347 348 345 345 345 336 334 346
345 348 347 348 347 347 348 349 353 351 353 353 347 346 344 345 346 347 348 345 346 345 346 348 348 346 350 348 348 350 349 349 350 349 348 348 347 341 338 339 343 348 343 347 347 346 346 344 347
346 348 349 348 347 349 348 349 351 350 352 351 348 346 344 346 345 345 347 344 345 345 347 348 348 351 350 348 352 349 352 352 349 349 349 345 344 343 343 339 345 347 346 346 349 348 343 345 346
352 350 353 348 349 352 353 356 350 352 353 352 350 347 346 346 344 345 346 343 345 345 347 348 348 349 350 351 350 350 351 350 350 347 346 345 345 345 344 343 346 346 345 346 345 346 347 347 347
348 352 347 350 349 353 354 355 349 351 352 352 350 349 347 347 345 347 345 342 344 345 346 347 348 349 349 350 349 350 350 350 350 352 348 347 347 347 346 344 344 347 348 346 346 346 345 344 348
352 349 346 350 351 350 355 355 350 350 353 352 352 351 347 346 347 345 343 343 344 345 345 345 348 350 353 348 349 351 351 349 348 347 349 348 347 348 349 350 346 344 346 346 348 346 345 343 345
345 348 350 349 349 352 355 353 351 348 353 353 351 351 348 345 347 343 345 342 344 344 344 346 347 351 350 348 348 349 350 349 348 351 347 346 345 346 349 351 347 347 347 347 346 348 344 346 348
340 341 343 342 344 351 350 355 352 349 351 352 351 351 349 348 347 344 345 341 342 342 344 346 349 351 346 346 348 349 349 351 350 350 348 345 346 346 345 349 349 347 351 345 345 346 348 345 345
338 339 340 340 343 347 347 356 354 351 348 350 351 351 350 350 348 347 350 346 341 340 342 345 347 352 351 353 351 345 344 345 343 345 349 347 346 348 345 344 345 347 346 347 346 346 345 347 343
337 334 337 339 341 352 347 364 350 346 351 348 350 351 350 348 347 348 350 346 345 340 341 342 345 349 348 351 346 350 349 350 349 348 351 352 347 346 345 345 347 346 346 344 341 342 348 347 350
336 334 335 336 340 350 347 354 349 346 352 351 347 348 349 348 347 348 348 345 347 342 341 341 342 349 351 341 352 352 347 350 349 350 348 347 347 349 346 345 345 344 343 345 343 345 344 346 346
335 335 338 342 340 346 348 349 347 347 353 353 348 347 347 349 349 349 349 347 348 347 345 343 343 349 352 352 347 349 353 351 351 347 348 351 349 350 350 345 343 344 343 342 344 345 344 347 344
334 338 344 347 344 343 345 351 351 341 350 354 349 347 347 348 350 348 349 348 347 348 348 346 346 347 350 353 351 341 348 344 352 353 345 350 347 352 352 352 346 344 346 345 346 346 343 343 342
337 339 343 345 343 343 344 348 349 344 347 351 349 347 346 347 347 349 349 350 350 348 349 347 348 349 350 351 351 346 339 336 336 347 348 349 349 354 352 351 346 341 347 344 341 340 341 348 348
335 336 336 334 337 341 345 346 347 345 349 349 349 347 346 346 347 348 348 351 350 349 347 348 349 351 351 351 351 350 348 342 349 349 350 350 347 345 346 345 345 340 343 344 344 342 337 348 351
334 335 336 338 343 345 350 349 350 345 346 348 349 348 347 345 345 346 347 348 348 349 349 347 347 347 346 351 352 348 348 343 340 349 348 351 350 348 347 347 346 340 344 345 345 345 345 344 345
334 334 335 336 336 339 343 343 345 347 345 347 347 347 347 346 345 345 346 347 348 348 349 350 349 348 347 347 350 350 351 351 349 343 345 346 346 341 343 341 339 340 348 353 353 349 345 347 348
337 337 337 338 339 339 344 345 339 343 343 341 346 346 347 347 346 345 345 346 347 347 347 347 348 350 350 349 349 350 350 352 351 351 351 352 351 349 346 341 339 344 346 349 349 350 349 348 349
Wind_Speed
5 4 3 3 2 3 4 5 14 17 14 20 16 19 17 16 12 13 25 21 21 19 18 17 16 16 15 14 13 14 14 13 13 14 16 15 16 17 18 19 19 19 19 20 20 21 21 23 24
5 6 9 1 2 3 4 16 13 16 21 19 18 22 20 16 20 27 25 22 20 18 17 16 16 15 14 13 13 14 13 13 13 15 16 16 17 17 18 19 18 17 18 18 18 17 19 23 26
4 7 4 4 3 0 5 11 17 20 18 15 11 17 9 21 21 23 26 24 19 19 16 14 15 14 13 12 11 11 13 12 13 15 16 17 17 17 18 18 17 15 15 15 16 16 16 21 22
1 4 6 4 10 6 9 12 18 18 12 19 19 14 17 19 23 27 25 21 24 21 13 14 14 13 12 10 9 10 11 12 13 14 16 17 17 18 17 16 15 14 14 15 15 16 16 18 20
5 6 3 2 10 18 13 16 17 14 14 14 16 19 24 16 25 25 23 22 26 19 13 12 14 13 12 11 10 10 11 13 14 15 17 15 15 15 15 15 14 13 13 14 14 15 15 15 17
5 5 3 4 12 17 2 13 12 9 18 23 27 27 20 23 25 23 21 21 17 20 12 11 11 11 11 10 10 10 13 13 14 18 17 13 13 13 12 13 12 11 12 13 12 13 13 14 15
10 3 2 9 16 15 11 10 9 6 13 18 24 20 18 25 22 21 20 18 22 17 14 10 13 9 9 10 10 12 14 14 16 18 15 14 12 12 12 12 12 10 10 11 10 9 10 11 14
19 7 4 5 13 14 7 8 16 12 10 13 18 9 22 27 23 20 18 17 15 20 15 14 7 6 6 11 12 14 14 14 17 19 16 13 12 12 11 10 11 12 10 9 9 8 7 9 14
11 3 3 13 14 13 14 14 11 14 15 12 8 28 29 28 24 22 19 16 14 15 10 18 14 10 12 14 15 15 14 13 17 17 16 13 10 10 8 7 7 8 9 8 9 9 10 12 14
7 4 5 5 11 16 21 10 17 13 15 25 21 28 28 27 24 21 18 15 15 13 23 14 17 18 16 16 17 16 15 14 15 17 15 12 9 8 4 3 5 6 8 8 8 9 11 13 12
11 6 9 14 24 9 14 27 14 11 6 21 29 31 28 26 23 22 19 17 18 16 13 17 17 18 12 16 15 13 11 11 11 15 14 10 8 7 4 4 9 8 9 9 8 7 5 5 12
6 24 7 8 23 12 7 12 9 7 11 4 29 28 27 26 24 21 19 17 17 20 21 16 13 16 10 13 13 10 10 10 7 12 10 9 8 7 8 6 9 10 9 13 6 6 10 3 9
3 8 12 9 4 15 19 18 13 12 16 12 26 24 26 24 19 16 19 18 18 15 16 14 12 16 9 12 16 10 11 11 9 6 13 8 5 7 8 8 9 9 6 8 8 1 5 6 7
10 5 19 5 13 7 12 13 8 20 23 17 27 24 26 23 22 20 17 19 18 16 15 13 12 13 13 11 10 9 6 10 10 12 11 10 8 7 9 9 9 6 10 8 8 11 5 5 5
11 13 14 9 17 9 14 8 12 12 30 12 26 27 25 24 23 20 22 19 17 17 18 15 13 13 11 13 9 13 11 3 5 6 4 5 6 8 7 11 9 7 4 2 5 7 7 8 9
16 12 6 11 9 12 9 12 12 19 22 17 18 24 25 25 22 19 18 19 18 21 19 17 15 11 10 10 8 9 7 5 1 3 4 2 4 6 8 9 10 9 7 7 9 6 10 10 10
8 6 15 10 12 14 10 16 14 21 24 22 18 22 25 27 22 21 19 18 20 20 18 16 15 16 10 10 5 7 6 3 3 2 6 4 2 3 6 8 11 11 9 9 6 6 7 11 8
10 8 7 15 11 12 21 18 15 17 24 21 21 20 20 23 25 22 19 20 19 19 17 14 13 14 10 10 8 5 6 3 7 3 1 4 2 3 5 3 4 10 13 11 8 9 6 8 10
16 23 32 30 11 14 8 15 15 15 23 20 20 22 21 26 26 24 22 20 17 19 19 17 15 16 10 4 7 4 7 3 4 3 1 3 4 5 5 0 4 3 9 10 15 7 4 6 9
7 5 10 9 9 4 7 17 12 10 16 18 21 26 23 23 25 27 21 23 19 20 20 17 15 12 12 9 7 4 5 8 4 3 2 1 0 2 4 5 2 1 5 7 9 11 12 10 12
2 2 6 10 15 27 15 9 11 10 8 16 24 20 24 25 29 29 25 22 23 23 22 21 17 13 12 7 8 7 7 2 5 2 2 3 3 2 1 2 1 5 8 8 6 5 12 10 13
7 2 5 3 12 4 12 5 13 17 9 12 23 27 26 29 29 29 24 25 27 25 22 22 21 15 15 14 9 6 4 2 5 4 3 1 2 3 1 2 3 3 6 8 8 3 9 10 9
5 0 8 6 5 11 7 7 9 16 12 14 18 24 32 32 31 28 26 27 27 25 25 23 22 20 15 16 11 9 9 6 3 4 1 1 2 2 3 4 3 4 5 6 6 4 8 8 8
5 8 7 13 9 8 17 11 4 9 21 17 21 22 23 32 28 32 27 26 26 25 26 25 23 22 19 15 18 16 11 8 5 6 5 5 4 1 2 3 5 5 4 4 7 8 6 6 7
7 3 4 3 4 1 27 14 11 28 23 20 20 27 25 28 32 28 28 31 29 28 31 27 25 24 22 20 15 20 18 14 11 8 4 3 5 7 5 6 8 5 4 4 3 3 6 8 8
12 11 7 13 9 8 14 7 9 27 41 26 27 27 26 25 25 27 33 36 33 29 32 31 30 24 24 22 20 16 16 17 15 12 8 7 4 3 5 7 10 8 7 7 6 6 4 4 5
15 11 14 10 9 5 10 8 8 15 21 23 24 26 24 24 24 23 23 33 35 33 31 28 30 26 25 23 23 21 19 16 13 10 13 11 12 10 13 16 15 11 10 11 12 9 8 5 10
15 15 11 5 3 3 18 8 6 23 12 18 18 23 22 21 23 22 23 23 24 26 31 31 30 24 29 24 21 21 21 20 18 19 20 16 15 15 17 16 14 14 13 12 14 14 15 15 15
6 9 11 3 2 4 5 1 17 23 9 17 16 21 22 20 21 20 21 22 22 22 25 24 24 24 23 22 24 22 20 18 18 20 23 23 22 20 21 21 19 16 15 15 17 18 18 18 20
10 13 8 3 7 1 8 6 7 6 11 7 21 22 23 19 20 21 22 23 22 21 22 24 25 23 21 20 22 23 20 19 19 18 14 16 17 15 17 17 15 14 15 16 19 20 15 15 18
Wind_Direction
175 150 33 227 256 167 223 157 111 95 95 90 75 71 73 45 46 105 137 134 136 135 133 130 125 121 117 109 100 94 93 93 86 81 82 86 95 98 101 99 103 102 97 97 94 92 90 92 97
190 234 237 305 298 144 69 103 107 101 97 94 94 78 63 58 99 125 126 133 133 133 130 129 127 122 116 109 103 98 97 94 89 86 86 87 97 99 104 104 102 103 103 100 100 95 93 97 103
164 249 241 83 281 99 78 84 105 105 121 96 83 63 54 111 110 122 129 131 131 131 139 127 126 125 119 114 110 103 96 95 95 92 89 89 96 98 105 105 102 107 107 107 103 101 100 104 108
237 251 268 131 197 264 131 125 124 118 110 103 111 87 99 114 116 125 129 131 133 134 150 128 124 122 118 117 116 110 106 102 104 100 93 91 94 98 104 103 103 107 108 105 100 100 101 104 112
227 253 128 279 146 99 72 103 136 113 110 89 91 106 118 109 125 127 129 129 139 130 123 125 123 119 116 117 118 116 115 107 111 111 100 101 99 96 97 97 96 100 104 103 99 96 97 98 108
246 265 114 124 109 90 76 103 92 106 101 97 102 117 116 127 132 132 132 137 130 121 127 119 114 114 119 120 125 121 121 122 119 117 110 98 105 105 105 101 106 102 102 104 105 97 98 96 106
229 7 316 141 124 124 118 114 95 111 115 115 124 119 131 137 138 138 133 132 127 126 124 81 82 98 123 129 128 128 130 129 129 127 126 121 106 106 106 105 108 108 113 118 112 109 102 100 106
253 142 231 198 125 116 135 131 130 130 120 116 128 134 150 146 142 140 137 123 125 124 140 122 85 80 116 135 135 136 134 134 142 137 139 126 116 109 101 102 113 112 114 115 111 110 111 111 107
5 15 271 109 111 139 120 121 120 159 125 121 97 142 144 145 144 138 128 130 124 141 119 126 98 86 125 137 135 132 131 135 147 144 140 137 127 119 106 106 117 125 126 120 113 108 109 109 114
60 299 332 78 99 142 155 143 133 145 128 102 114 132 143 148 149 135 142 150 139 126 136 110 115 101 106 128 123 122 121 127 149 151 145 145 143 130 117 184 159 145 146 139 130 119 110 116 124
172 220 190 161 135 133 138 77 77 146 62 122 144 145 148 150 152 145 152 160 137 138 135 129 117 107 116 113 107 109 111 126 144 154 159 156 165 171 162 124 162 163 165 152 156 148 116 139 141
176 213 132 90 132 112 99 115 103 100 164 114 149 149 153 157 163 154 156 151 139 131 120 116 121 142 119 117 109 157 124 141 128 151 154 164 168 167 178 170 172 170 155 150 199 185 166 134 143
153 124 95 137 29 113 136 126 134 151 165 171 155 155 160 163 164 153 145 152 145 134 129 136 126 120 134 119 135 135 160 156 166 169 142 168 151 185 186 176 176 162 190 172 139 101 174 144 138
167 201 120 176 117 109 110 122 129 153 152 184 151 160 164 165 163 165 170 153 148 153 137 138 143 148 147 138 147 142 145 158 157 175 156 171 183 190 200 191 171 194 172 180 180 172 228 164 154
188 151 148 167 140 121 116 128 96 124 137 137 153 164 165 173 168 173 168 156 156 161 145 143 145 151 148 162 146 132 113 43 91 164 172 295 205 191 167 191 177 196 211 248 155 195 250 165 191
94 354 347 151 159 142 183 129 134 134 135 150 160 160 170 169 162 177 173 158 162 154 147 159 150 155 135 128 133 126 110 191 219 99 150 299 206 185 187 183 197 189 192 211 219 192 214 220 217
77 155 283 288 174 164 197 128 143 149 146 161 165 176 175 161 169 178 181 161 155 151 151 162 160 159 173 146 153 102 147 106 140 291 61 233 184 149 164 161 187 186 199 221 234 243 269 223 208
198 152 167 268 169 196 173 123 146 160 151 155 179 168 177 174 174 181 173 161 153 152 158 162 150 149 152 160 143 149 143 358 79 91 84 147 156 145 141 176 212 207 198 200 219 240 252 214 177
215 191 179 214 164 184 67 142 149 165 147 159 168 180 185 178 177 179 165 169 161 161 163 171 167 166 164 128 151 140 183 249 107 174 71 159 123 113 132 269 322 228 213 220 216 225 204 203 179
207 204 172 124 149 29 333 127 140 167 158 163 167 173 181 180 181 175 173 171 176 172 173 172 175 190 181 153 139 130 124 126 99 204 332 267 91 83 134 187 240 282 273 258 233 221 216 214 185
101 353 175 184 120 112 243 133 138 161 180 163 163 182 183 190 192 172 174 181 181 183 182 182 179 189 180 179 163 206 188 155 188 248 0 31 54 38 59 188 259 253 279 253 252 231 218 214 212
178 21 289 166 173 142 183 35 15 332 243 186 169 183 185 195 193 180 185 192 187 185 185 190 190 191 195 166 163 187 175 181 166 202 218 311 359 298 299 278 295 304 292 260 182 237 223 219 233
49 135 288 257 239 141 224 90 292 329 294 192 203 190 181 184 192 191 189 190 189 184 186 192 196 188 194 185 171 199 193 212 229 176 215 196 278 338 356 345 323 323 323 198 208 197 251 237 235
327 253 273 323 278 232 113 98 248 237 235 207 194 187 194 179 189 184 188 190 190 192 190 189 199 190 186 206 192 184 203 201 166 202 221 252 265 355 306 317 302 304 293 251 251 248 275 228 239
224 283 334 326 233 317 126 102 269 225 232 200 187 183 191 184 181 187 186 188 195 196 194 190 199 197 196 195 213 200 208 205 203 216 199 296 261 245 240 268 312 306 291 304 308 246 240 245 227
284 167 181 268 219 120 118 146 183 204 213 184 180 182 183 184 186 190 188 186 189 194 195 190 193 199 205 208 211 217 213 217 220 224 210 239 278 207 250 277 295 280 268 283 289 278 308 223 262
268 243 300 300 3 49 97 4 12 340 142 155 168 175 176 178 177 188 193 183 188 188 192 187 186 195 208 213 217 221 227 223 225 236 255 258 238 244 283 272 282 276 264 265 276 267 269 259 274
279 300 300 336 32 354 96 90 146 296 150 149 157 168 171 174 174 179 187 193 188 186 191 200 215 218 213 209 226 231 235 239 225 218 226 227 231 234 239 256 272 281 275 270 269 274 278 273 264
208 235 244 242 172 285 76 122 192 204 132 153 157 166 165 173 175 173 180 183 188 195 192 198 200 204 212 224 214 230 236 237 247 236 234 244 254 255 252 260 267 258 264 278 284 285 276 280 282
242 271 293 357 279 59 73 3 42 123 158 140 158 160 162 178 178 173 174 171 180 190 194 199 200 203 208 216 216 219 230 226 237 257 249 255 270 272 275 273 269 265 266 270 272 280 293 295 286